This is the latest recevied weather packets stored in our database for station/object DB0NU-15. If no packets are shown the sender has not sent any weather packets the latest 10 day(s).
| Time | Temp. | Humidity | Pressure | Rain* | Wind** | Luminosity | Snow |
|---|---|---|---|---|---|---|---|
| 1777653636 | 19.44° C | 36% | 1026.2 hPa | 0 mm | - | - | - |
| 1777653033 | 19.44° C | 36% | 1026.3 hPa | 0 mm | - | - | - |
| 1777652429 | 19.44° C | 37% | 1026.1 hPa | 0 mm | - | - | - |
| 1777651826 | 19.44° C | 36% | 1026.4 hPa | 0 mm | - | - | - |
| 1777651222 | 20° C | 36% | 1026.5 hPa | 0 mm | - | - | - |
| 1777650016 | 19.44° C | 36% | 1026.6 hPa | 0 mm | - | - | - |
| 1777649473 | 20° C | 35% | 1026.7 hPa | 0 mm | - | - | - |
| 1777648869 | 20.56° C | 35% | 1026.8 hPa | 0 mm | - | - | - |
| 1777648266 | 21.11° C | 35% | 1026.9 hPa | 0 mm | - | - | - |
| 1777647662 | 20.56° C | 35% | 1027.1 hPa | 0 mm | - | - | - |
| 1777647059 | 20.56° C | 35% | 1027.2 hPa | 0 mm | - | - | - |
| 1777646455 | 20.56° C | 35% | 1027.3 hPa | 0 mm | - | - | - |
| 1777645852 | 20.56° C | 35% | 1027.3 hPa | 0 mm | - | - | - |
| 1777645249 | 20.56° C | 37% | 1027.3 hPa | 0 mm | - | - | - |
| 1777644645 | 21.11° C | 36% | 1027.4 hPa | 0 mm | - | - | - |
| 1777644042 | 21.67° C | 34% | 1027.5 hPa | 0 mm | - | - | - |
| 1777643439 | 20.56° C | 35% | 1027.6 hPa | 0 mm | - | - | - |
| 1777642835 | 20° C | 37% | 1027.6 hPa | 0 mm | - | - | - |
| 1777642232 | 20° C | 36% | 1027.7 hPa | 0 mm | - | - | - |
| 1777641628 | 20.56° C | 36% | 1027.8 hPa | 0 mm | - | - | - |
| 1777641025 | 20.56° C | 36% | 1028.1 hPa | 0 mm | - | - | - |
| 1777640421 | 19.44° C | 38% | 1028.1 hPa | 0 mm | - | - | - |
| 1777639818 | 20.56° C | 37% | 1028.3 hPa | 0 mm | - | - | - |
| 1777639275 | 19.44° C | 39% | 1028.3 hPa | 0 mm | - | - | - |
| 1777637464 | 20.56° C | 38% | 1028.7 hPa | 0 mm | - | - | - |
* Rain latest hour (hover to see other rain measurements)
** Current wind speed in m/s (hover to see current wind gust speed)